Year,Month,Day,Hour,Minute,Value (Times are PST for temperature in C)
2011,02,23,00,00,-2.20
2011,02,23,00,01,-2.30
2011,02,23,00,02,-2.30
2011,02,23,00,03,-2.30
2011,02,23,00,04,-2.30
2011,02,23,00,05,-2.30
2011,02,23,00,06,-2.30
2011,02,23,00,07,-2.30
2011,02,23,00,08,-2.30
2011,02,23,00,09,-2.30
2011,02,23,00,10,-2.30
2011,02,23,00,11,-2.30
2011,02,23,00,12,-2.30
2011,02,23,00,13,-2.30
2011,02,23,00,14,-2.30
2011,02,23,00,15,-2.30
2011,02,23,00,16,-2.30
2011,02,23,00,17,-2.30
2011,02,23,00,18,-2.30
2011,02,23,00,19,-2.30
2011,02,23,00,20,-2.30
2011,02,23,00,21,-2.30
2011,02,23,00,22,-2.30
2011,02,23,00,23,-2.30
2011,02,23,00,24,-2.30
2011,02,23,00,25,-2.30
2011,02,23,00,26,-2.30
2011,02,23,00,27,-2.30
2011,02,23,00,28,-2.30
2011,02,23,00,29,-2.30
2011,02,23,00,30,-2.30
2011,02,23,00,31,-2.30
2011,02,23,00,32,-2.30
2011,02,23,00,33,-2.30
2011,02,23,00,34,-2.30
2011,02,23,00,35,-2.30
2011,02,23,00,36,-2.30
2011,02,23,00,37,-2.30
2011,02,23,00,38,-2.30
2011,02,23,00,39,-2.30
2011,02,23,00,40,-2.30
2011,02,23,00,41,-2.30
2011,02,23,00,42,-2.30
2011,02,23,00,43,-2.30
2011,02,23,00,44,-2.30
2011,02,23,00,45,-2.30
2011,02,23,00,46,-2.30
2011,02,23,00,47,-2.30
2011,02,23,00,48,-2.30
2011,02,23,00,49,-2.30
2011,02,23,00,50,-2.30
2011,02,23,00,51,-2.30
2011,02,23,00,52,-2.30
2011,02,23,00,53,-2.30
2011,02,23,00,54,-2.30
2011,02,23,00,55,-2.30
2011,02,23,00,56,-2.30
2011,02,23,00,57,-2.40
2011,02,23,00,58,-2.40
2011,02,23,00,59,-2.40
2011,02,23,01,00,-2.40
2011,02,23,01,01,-2.40
2011,02,23,01,02,-2.40
2011,02,23,01,03,-2.40
2011,02,23,01,04,-2.30
2011,02,23,01,05,-2.30
2011,02,23,01,06,-2.30
2011,02,23,01,07,-2.30
2011,02,23,01,08,-2.40
2011,02,23,01,09,-2.40
2011,02,23,01,10,-2.40
2011,02,23,01,11,-2.30
2011,02,23,01,12,-2.30
2011,02,23,01,13,-2.30
2011,02,23,01,14,-2.30
2011,02,23,01,15,-2.40
2011,02,23,01,16,-2.40
2011,02,23,01,17,-2.40
2011,02,23,01,18,-2.40
2011,02,23,01,19,-2.40
2011,02,23,01,20,-2.40
2011,02,23,01,21,-2.40
2011,02,23,01,22,-2.50
2011,02,23,01,23,-2.50
2011,02,23,01,24,-2.50
2011,02,23,01,25,-2.50
2011,02,23,01,26,-2.50
2011,02,23,01,27,-2.50
2011,02,23,01,28,-2.50
2011,02,23,01,29,-2.50
2011,02,23,01,30,-2.50
2011,02,23,01,31,-2.50
2011,02,23,01,32,-2.60
2011,02,23,01,33,-2.60
2011,02,23,01,34,-2.60
2011,02,23,01,35,-2.60
2011,02,23,01,36,-2.60
2011,02,23,01,37,-2.60
2011,02,23,01,38,-2.60
2011,02,23,01,39,-2.60
2011,02,23,01,40,-2.60
2011,02,23,01,41,-2.60
2011,02,23,01,42,-2.60
2011,02,23,01,43,-2.60
2011,02,23,01,44,-2.60
2011,02,23,01,45,-2.60
2011,02,23,01,46,-2.60
2011,02,23,01,47,-2.60
2011,02,23,01,48,-2.60
2011,02,23,01,49,-2.60
2011,02,23,01,50,-2.70
2011,02,23,01,51,-2.70
2011,02,23,01,52,-2.70
2011,02,23,01,53,-2.70
2011,02,23,01,54,-2.60
2011,02,23,01,55,-2.60
2011,02,23,01,56,-2.60
2011,02,23,01,57,-2.60
2011,02,23,01,58,-2.60
2011,02,23,01,59,-2.60
2011,02,23,02,00,-2.60
2011,02,23,02,01,-2.60
2011,02,23,02,02,-2.60
2011,02,23,02,03,-2.60
2011,02,23,02,04,-2.60
2011,02,23,02,05,-2.60
2011,02,23,02,06,-2.60
2011,02,23,02,07,-2.60
2011,02,23,02,08,-2.60
2011,02,23,02,09,-2.60
2011,02,23,02,10,-2.60
2011,02,23,02,11,-2.60
2011,02,23,02,12,-2.60
2011,02,23,02,13,-2.60
2011,02,23,02,14,-2.60
2011,02,23,02,15,-2.50
2011,02,23,02,16,-2.50
2011,02,23,02,17,-2.50
2011,02,23,02,18,-2.50
2011,02,23,02,19,-2.50
2011,02,23,02,20,-2.50
2011,02,23,02,21,-2.50
2011,02,23,02,22,-2.50
2011,02,23,02,23,-2.50
2011,02,23,02,24,-2.50
2011,02,23,02,25,-2.50
2011,02,23,02,26,-2.50
2011,02,23,02,27,-2.50
2011,02,23,02,28,-2.50
2011,02,23,02,29,-2.50
2011,02,23,02,30,-2.50
2011,02,23,02,31,-2.50
2011,02,23,02,32,-2.50
2011,02,23,02,33,-2.50
2011,02,23,02,34,-2.50
2011,02,23,02,35,-2.50
2011,02,23,02,36,-2.50
2011,02,23,02,37,-2.50
2011,02,23,02,38,-2.50
2011,02,23,02,39,-2.50
2011,02,23,02,40,-2.50
2011,02,23,02,41,-2.50
2011,02,23,02,42,-2.50
2011,02,23,02,43,-2.50
2011,02,23,02,44,-2.50
2011,02,23,02,45,-2.50
2011,02,23,02,46,-2.50
2011,02,23,02,47,-2.50
2011,02,23,02,48,-2.50
2011,02,23,02,49,-2.50
2011,02,23,02,50,-2.50
2011,02,23,02,51,-2.50
2011,02,23,02,52,-2.50
2011,02,23,02,53,-2.50
2011,02,23,02,54,-2.50
2011,02,23,02,55,-2.50
2011,02,23,02,56,-2.50
2011,02,23,02,57,-2.50
2011,02,23,02,58,-2.50
2011,02,23,02,59,-2.50
2011,02,23,03,00,-2.50
2011,02,23,03,01,-2.50
2011,02,23,03,02,-2.50
2011,02,23,03,03,-2.50
2011,02,23,03,04,-2.50
2011,02,23,03,05,-2.50
2011,02,23,03,06,-2.50
2011,02,23,03,07,-2.50
2011,02,23,03,08,-2.50
2011,02,23,03,09,-2.50
2011,02,23,03,10,-2.50
2011,02,23,03,11,-2.50
2011,02,23,03,12,-2.50
2011,02,23,03,13,-2.50
2011,02,23,03,14,-2.50
2011,02,23,03,15,-2.50
2011,02,23,03,16,-2.50
2011,02,23,03,17,-2.50
2011,02,23,03,18,-2.50
2011,02,23,03,19,-2.50
2011,02,23,03,20,-2.50
2011,02,23,03,21,-2.50
2011,02,23,03,22,-2.50
2011,02,23,03,23,-2.50
2011,02,23,03,24,-2.50
2011,02,23,03,25,-2.50
2011,02,23,03,26,-2.50
2011,02,23,03,27,-2.50
2011,02,23,03,28,-2.50
2011,02,23,03,29,-2.50
2011,02,23,03,30,-2.50
2011,02,23,03,31,-2.50
2011,02,23,03,32,-2.40
2011,02,23,03,33,-2.40
2011,02,23,03,34,-2.40
2011,02,23,03,35,-2.40
2011,02,23,03,36,-2.40
2011,02,23,03,37,-2.40
2011,02,23,03,38,-2.40
2011,02,23,03,39,-2.40
2011,02,23,03,40,-2.40
2011,02,23,03,41,-2.40
2011,02,23,03,42,-2.30
2011,02,23,03,43,-2.30
2011,02,23,03,44,-2.30
2011,02,23,03,45,-2.30
2011,02,23,03,46,-2.30
2011,02,23,03,47,-2.30
2011,02,23,03,48,-2.30
2011,02,23,03,49,-2.30
2011,02,23,03,50,-2.30
2011,02,23,03,51,-2.30
2011,02,23,03,52,-2.30
2011,02,23,03,53,-2.30
2011,02,23,03,54,-2.30
2011,02,23,03,55,-2.30
2011,02,23,03,56,-2.30
2011,02,23,03,57,-2.30
2011,02,23,03,58,-2.30
2011,02,23,03,59,-2.30
2011,02,23,04,00,-2.30
2011,02,23,04,01,-2.30
2011,02,23,04,02,-2.30
2011,02,23,04,03,-2.30
2011,02,23,04,04,-2.30
2011,02,23,04,05,-2.30
2011,02,23,04,06,-2.30
2011,02,23,04,07,-2.30
2011,02,23,04,08,-2.30
2011,02,23,04,09,-2.30
2011,02,23,04,10,-2.30
2011,02,23,04,11,-2.30
2011,02,23,04,12,-2.30
2011,02,23,04,13,-2.30
2011,02,23,04,14,-2.30
2011,02,23,04,15,-2.30
2011,02,23,04,16,-2.30
2011,02,23,04,17,-2.30
2011,02,23,04,18,-2.30
2011,02,23,04,19,-2.30
2011,02,23,04,20,-2.30
2011,02,23,04,21,-2.30
2011,02,23,04,22,-2.30
2011,02,23,04,23,-2.30
2011,02,23,04,24,-2.30
2011,02,23,04,25,-2.30
2011,02,23,04,26,-2.30
2011,02,23,04,27,-2.30
2011,02,23,04,28,-2.20
2011,02,23,04,29,-2.20
2011,02,23,04,30,-2.20
2011,02,23,04,31,-2.30
2011,02,23,04,32,-2.30
2011,02,23,04,33,-2.20
2011,02,23,04,34,-2.20
2011,02,23,04,35,-2.20
2011,02,23,04,36,-2.20
2011,02,23,04,37,-2.20
2011,02,23,04,38,-2.10
2011,02,23,04,39,-2.10
2011,02,23,04,40,-2.10
2011,02,23,04,41,-2.10
2011,02,23,04,42,-2.10
2011,02,23,04,43,-2.10
2011,02,23,04,44,-2.10
2011,02,23,04,45,-2.10
2011,02,23,04,46,-2.10
2011,02,23,04,47,-2.10
2011,02,23,04,48,-2.10
2011,02,23,04,49,-2.10
2011,02,23,04,50,-2.00
2011,02,23,04,51,-2.00
2011,02,23,04,52,-2.00
2011,02,23,04,53,-2.00
2011,02,23,04,54,-2.00
2011,02,23,04,55,-2.00
2011,02,23,04,56,-2.00
2011,02,23,04,57,-2.00
2011,02,23,04,58,-1.90
2011,02,23,04,59,-1.90
2011,02,23,05,00,-1.90
2011,02,23,05,01,-1.90
2011,02,23,05,02,-1.80
2011,02,23,05,03,-1.80
2011,02,23,05,04,-1.80
2011,02,23,05,05,-1.80
2011,02,23,05,06,-1.80
2011,02,23,05,07,-1.80
2011,02,23,05,08,-1.80
2011,02,23,05,09,-1.80
2011,02,23,05,10,-1.70
2011,02,23,05,11,-1.70
2011,02,23,05,12,-1.70
2011,02,23,05,13,-1.70
2011,02,23,05,14,-1.70
2011,02,23,05,15,-1.70
2011,02,23,05,16,-1.70
2011,02,23,05,17,-1.70
2011,02,23,05,18,-1.70
2011,02,23,05,19,-1.70
2011,02,23,05,20,-1.60
2011,02,23,05,21,-1.60
2011,02,23,05,22,-1.60
2011,02,23,05,23,-1.60
2011,02,23,05,24,-1.60
2011,02,23,05,25,-1.60
2011,02,23,05,26,-1.60
2011,02,23,05,27,-1.60
2011,02,23,05,28,-1.60
2011,02,23,05,29,-1.60
2011,02,23,05,30,-1.60
2011,02,23,05,31,-1.60
2011,02,23,05,32,-1.60
2011,02,23,05,33,-1.50
2011,02,23,05,34,-1.50
2011,02,23,05,35,-1.60
2011,02,23,05,36,-1.60
2011,02,23,05,37,-1.60
2011,02,23,05,38,-1.60
2011,02,23,05,39,-1.60
2011,02,23,05,40,-1.60
2011,02,23,05,41,-1.60
2011,02,23,05,42,-1.60
2011,02,23,05,43,-1.60
2011,02,23,05,44,-1.60
2011,02,23,05,45,-1.60
2011,02,23,05,46,-1.60
2011,02,23,05,47,-1.60
2011,02,23,05,48,-1.60
2011,02,23,05,49,-1.60
2011,02,23,05,50,-1.60
2011,02,23,05,51,-1.60
2011,02,23,05,52,-1.60
2011,02,23,05,53,-1.60
2011,02,23,05,54,-1.60
2011,02,23,05,55,-1.60
2011,02,23,05,56,-1.60
2011,02,23,05,57,-1.60
2011,02,23,05,58,-1.60
2011,02,23,05,59,-1.60
2011,02,23,06,00,-1.60
2011,02,23,06,01,-1.60
2011,02,23,06,02,-1.60
2011,02,23,06,03,-1.60
2011,02,23,06,04,-1.60
2011,02,23,06,05,-1.60
2011,02,23,06,06,-1.50
2011,02,23,06,07,-1.50
2011,02,23,06,08,-1.50
2011,02,23,06,09,-1.50
2011,02,23,06,10,-1.50
2011,02,23,06,11,-1.50
2011,02,23,06,12,-1.50
2011,02,23,06,13,-1.50
2011,02,23,06,14,-1.50
2011,02,23,06,15,-1.50
2011,02,23,06,16,-1.50
2011,02,23,06,17,-1.60
2011,02,23,06,18,-1.60
2011,02,23,06,19,-1.60
2011,02,23,06,20,-1.60
2011,02,23,06,21,-1.70
2011,02,23,06,22,-1.70
2011,02,23,06,23,-1.70
2011,02,23,06,24,-1.70
2011,02,23,06,25,-1.70
2011,02,23,06,26,-1.70
2011,02,23,06,27,-1.70
2011,02,23,06,28,-1.70
2011,02,23,06,29,-1.70
2011,02,23,06,30,-1.70
2011,02,23,06,31,-1.70
2011,02,23,06,32,-1.70
2011,02,23,06,33,-1.80
2011,02,23,06,34,-1.80
2011,02,23,06,35,-1.80
2011,02,23,06,36,-1.80
2011,02,23,06,37,-1.80
2011,02,23,06,38,-1.80
2011,02,23,06,39,-1.80
2011,02,23,06,40,-1.80
2011,02,23,06,41,-1.80
2011,02,23,06,42,-1.80
2011,02,23,06,43,-1.80
2011,02,23,06,44,-1.80
2011,02,23,06,45,-1.80
2011,02,23,06,46,-1.80
2011,02,23,06,47,-1.80
2011,02,23,06,48,-1.80
2011,02,23,06,49,-1.80
2011,02,23,06,50,-1.80
2011,02,23,06,51,-1.80
2011,02,23,06,52,-1.90
2011,02,23,06,53,-1.90
2011,02,23,06,54,-1.90
2011,02,23,06,55,-1.90
2011,02,23,06,56,-1.90
2011,02,23,06,57,-1.90
2011,02,23,06,58,-1.90
2011,02,23,06,59,-1.90
2011,02,23,07,00,-1.90
2011,02,23,07,01,-1.90
2011,02,23,07,02,-1.90
2011,02,23,07,03,-1.90
2011,02,23,07,04,-2.00
2011,02,23,07,05,-2.00
2011,02,23,07,06,-2.00
2011,02,23,07,07,-2.00
2011,02,23,07,08,-2.00
2011,02,23,07,09,-2.00
2011,02,23,07,10,-2.00
2011,02,23,07,11,-2.00
2011,02,23,07,12,-1.90
2011,02,23,07,13,-1.90
2011,02,23,07,14,-1.90
2011,02,23,07,15,-1.90
2011,02,23,07,16,-1.90
2011,02,23,07,17,-1.90
2011,02,23,07,18,-1.90
2011,02,23,07,19,-1.90
2011,02,23,07,20,-1.90
2011,02,23,07,21,-1.90
2011,02,23,07,22,-1.90
2011,02,23,07,23,-1.90
2011,02,23,07,24,-1.90
2011,02,23,07,25,-1.90
2011,02,23,07,26,-1.90
2011,02,23,07,27,-1.90
2011,02,23,07,28,-1.90
2011,02,23,07,29,-1.90
2011,02,23,07,30,-1.90
2011,02,23,07,31,-1.90
2011,02,23,07,32,-1.90
2011,02,23,07,33,-2.00
2011,02,23,07,34,-2.00
2011,02,23,07,35,-2.00
2011,02,23,07,36,-2.00
2011,02,23,07,37,-2.00
2011,02,23,07,38,-2.00
2011,02,23,07,39,-2.00
2011,02,23,07,40,-2.00
2011,02,23,07,41,-2.00
2011,02,23,07,42,-2.00
2011,02,23,07,43,-2.10
2011,02,23,07,44,-2.10
2011,02,23,07,45,-2.10
2011,02,23,07,46,-2.10
2011,02,23,07,47,-2.10
2011,02,23,07,48,-2.10
2011,02,23,07,49,-2.10
2011,02,23,07,50,-2.10
2011,02,23,07,51,-2.10
2011,02,23,07,52,-2.10
2011,02,23,07,53,-2.10
2011,02,23,07,54,-2.10
2011,02,23,07,55,-2.10
2011,02,23,07,56,-2.10
2011,02,23,07,57,-2.10
2011,02,23,07,58,-2.10
2011,02,23,07,59,-2.10
2011,02,23,08,00,-2.10
2011,02,23,08,01,-2.00
2011,02,23,08,02,-2.00
2011,02,23,08,03,-2.00
2011,02,23,08,04,-2.00
2011,02,23,08,05,-2.00
2011,02,23,08,06,-2.00
2011,02,23,08,07,-2.00
2011,02,23,08,08,-2.00
2011,02,23,08,09,-2.00
2011,02,23,08,10,-2.00
2011,02,23,08,11,-2.00
2011,02,23,08,12,-2.00
2011,02,23,08,13,-2.00
2011,02,23,08,14,-1.90
2011,02,23,08,15,-1.90
2011,02,23,08,16,-1.90
2011,02,23,08,17,-1.90
2011,02,23,08,18,-1.90
2011,02,23,08,19,-1.90
2011,02,23,08,20,-1.90
2011,02,23,08,21,-1.80
2011,02,23,08,22,-1.80
2011,02,23,08,23,-1.80
2011,02,23,08,24,-1.80
2011,02,23,08,25,-1.80
2011,02,23,08,26,-1.80
2011,02,23,08,27,-1.80
2011,02,23,08,28,-1.80
2011,02,23,08,29,-1.80
2011,02,23,08,30,-1.80
2011,02,23,08,31,-1.80
2011,02,23,08,32,-1.80
2011,02,23,08,33,-1.80
2011,02,23,08,34,-1.80
2011,02,23,08,35,-1.80
2011,02,23,08,36,-1.80
2011,02,23,08,37,-1.70
2011,02,23,08,38,-1.70
2011,02,23,08,39,-1.70
2011,02,23,08,40,-1.70
2011,02,23,08,41,-1.70
2011,02,23,08,42,-1.70
2011,02,23,08,43,-1.70
2011,02,23,08,44,-1.70
2011,02,23,08,45,-1.70
2011,02,23,08,46,-1.70
2011,02,23,08,47,-1.70
2011,02,23,08,48,-1.70
2011,02,23,08,49,-1.70
2011,02,23,08,50,-1.70
2011,02,23,08,51,-1.70
2011,02,23,08,52,-1.70
2011,02,23,08,53,-1.70
2011,02,23,08,54,-1.70
2011,02,23,08,55,-1.70
2011,02,23,08,56,-1.70
2011,02,23,08,57,-1.70
2011,02,23,08,58,-1.70
2011,02,23,08,59,-1.70
2011,02,23,09,00,-1.70
2011,02,23,09,01,-1.60
2011,02,23,09,02,-1.60
2011,02,23,09,03,-1.60
2011,02,23,09,04,-1.60
2011,02,23,09,05,-1.60
2011,02,23,09,06,-1.50
2011,02,23,09,07,-1.50
2011,02,23,09,08,-1.50
2011,02,23,09,09,-1.50
2011,02,23,09,10,-1.50
2011,02,23,09,11,-1.50
2011,02,23,09,12,-1.40
2011,02,23,09,13,-1.40
2011,02,23,09,14,-1.40
2011,02,23,09,15,-1.40
2011,02,23,09,16,-1.40
2011,02,23,09,17,-1.40
2011,02,23,09,18,-1.40
2011,02,23,09,19,-1.40
2011,02,23,09,20,-1.40
2011,02,23,09,21,-1.30
2011,02,23,09,22,-1.30
2011,02,23,09,23,-1.30
2011,02,23,09,24,-1.30
2011,02,23,09,25,-1.30
2011,02,23,09,26,-1.30
2011,02,23,09,27,-1.20
2011,02,23,09,28,-1.20
2011,02,23,09,29,-1.20
2011,02,23,09,30,-1.20
2011,02,23,09,31,-1.20
2011,02,23,09,32,-1.20
2011,02,23,09,33,-1.10
2011,02,23,09,34,-1.10
2011,02,23,09,35,-1.10
2011,02,23,09,36,-1.10
2011,02,23,09,37,-1.10
2011,02,23,09,38,-1.10
2011,02,23,09,39,-1.10
2011,02,23,09,40,-1.10
2011,02,23,09,41,-1.10
2011,02,23,09,42,-1.10
2011,02,23,09,43,-1.10
2011,02,23,09,44,-1.10
2011,02,23,09,45,-1.10
2011,02,23,09,46,-1.10
2011,02,23,09,47,-1.10
2011,02,23,09,48,-1.10
2011,02,23,09,49,-1.10
2011,02,23,09,50,-1.10
2011,02,23,09,51,-1.10
2011,02,23,09,52,-1.10
2011,02,23,09,53,-1.10
2011,02,23,09,54,-1.10
2011,02,23,09,55,-1.10
2011,02,23,09,56,-1.10
2011,02,23,09,57,-1.10
2011,02,23,09,58,-1.10
2011,02,23,09,59,-1.10
2011,02,23,10,00,-1.10
2011,02,23,10,01,-1.20
2011,02,23,10,02,-1.20
2011,02,23,10,03,-1.20
2011,02,23,10,04,-1.30
2011,02,23,10,05,-1.30
2011,02,23,10,06,-1.30
2011,02,23,10,07,-1.30
2011,02,23,10,08,-1.30
2011,02,23,10,09,-1.40
2011,02,23,10,10,-1.40
2011,02,23,10,11,-1.40
2011,02,23,10,12,-1.40
2011,02,23,10,13,-1.40
2011,02,23,10,14,-1.40
2011,02,23,10,15,-1.40
2011,02,23,10,16,-1.40
2011,02,23,10,17,-1.50
2011,02,23,10,18,-1.50
2011,02,23,10,19,-1.60
2011,02,23,10,20,-1.60
2011,02,23,10,21,-1.60
2011,02,23,10,22,-1.60
2011,02,23,10,23,-1.60
2011,02,23,10,24,-1.70
2011,02,23,10,25,-1.70
2011,02,23,10,26,-1.70
2011,02,23,10,27,-1.70
2011,02,23,10,28,-1.70
2011,02,23,10,29,-1.70
2011,02,23,10,30,-1.70
2011,02,23,10,31,-1.70
2011,02,23,10,32,-1.70
2011,02,23,10,33,-1.80
2011,02,23,10,34,-1.80
2011,02,23,10,35,-1.80
2011,02,23,10,36,-1.80
2011,02,23,10,37,-1.80
2011,02,23,10,38,-1.80
2011,02,23,10,39,-1.80
2011,02,23,10,40,-1.80
2011,02,23,10,41,-1.80
2011,02,23,10,42,-1.90
2011,02,23,10,43,-1.90
2011,02,23,10,44,-1.90
2011,02,23,10,45,-1.90
2011,02,23,10,46,-1.90
2011,02,23,10,47,-1.90
2011,02,23,10,48,-2.00
2011,02,23,10,49,-2.00
2011,02,23,10,50,-2.00
2011,02,23,10,51,-2.00
2011,02,23,10,52,-2.00
2011,02,23,10,53,-2.00
2011,02,23,10,54,-2.00
2011,02,23,10,55,-2.10
2011,02,23,10,56,-2.10
2011,02,23,10,57,-2.10
2011,02,23,10,58,-2.10
2011,02,23,10,59,-2.10
2011,02,23,11,00,-2.20
2011,02,23,11,01,-2.20
2011,02,23,11,02,-2.20
2011,02,23,11,03,-2.20
2011,02,23,11,04,-2.20
2011,02,23,11,05,-2.20
2011,02,23,11,06,-2.20
2011,02,23,11,07,-2.20
2011,02,23,11,08,-2.20
2011,02,23,11,09,-2.20
2011,02,23,11,10,-2.30
2011,02,23,11,11,-2.30
2011,02,23,11,12,-2.30
2011,02,23,11,13,-2.30
2011,02,23,11,14,-2.30
2011,02,23,11,15,-2.30
2011,02,23,11,16,-2.30
2011,02,23,11,17,-2.30
2011,02,23,11,18,-2.30
2011,02,23,11,19,-2.30
2011,02,23,11,20,-2.40
2011,02,23,11,21,-2.40
2011,02,23,11,22,-2.40
2011,02,23,11,23,-2.40
2011,02,23,11,24,-2.40
2011,02,23,11,25,-2.40
2011,02,23,11,26,-2.50
2011,02,23,11,27,-2.50
2011,02,23,11,28,-2.50
2011,02,23,11,29,-2.50
2011,02,23,11,30,-2.50
2011,02,23,11,31,-2.50
2011,02,23,11,32,-2.50
2011,02,23,11,33,-2.50
2011,02,23,11,34,-2.60
2011,02,23,11,35,-2.60
2011,02,23,11,36,-2.60
2011,02,23,11,37,-2.70
2011,02,23,11,38,-2.70
2011,02,23,11,39,-2.70
2011,02,23,11,40,-2.80
2011,02,23,11,41,-2.80
2011,02,23,11,42,-2.80
2011,02,23,11,43,-2.80
2011,02,23,11,44,-2.80
2011,02,23,11,45,-2.80
2011,02,23,11,46,-2.80
2011,02,23,11,47,-2.80
2011,02,23,11,48,-2.80
2011,02,23,11,49,-2.80
2011,02,23,11,50,-2.80
2011,02,23,11,51,-2.80
2011,02,23,11,52,-2.80
2011,02,23,11,53,-2.80
2011,02,23,11,54,-2.80
2011,02,23,11,55,-2.80
2011,02,23,11,56,-2.80
2011,02,23,11,57,-2.80
2011,02,23,11,58,-2.80
2011,02,23,11,59,-2.80
2011,02,23,12,00,-2.80
2011,02,23,12,01,-2.80
2011,02,23,12,02,-2.80
2011,02,23,12,03,-2.80
2011,02,23,12,04,-2.80
2011,02,23,12,05,-2.80
2011,02,23,12,06,-2.80
2011,02,23,12,07,-2.80
2011,02,23,12,08,-2.80
2011,02,23,12,09,-2.80
2011,02,23,12,10,-2.80
2011,02,23,12,11,-2.80
2011,02,23,12,12,-2.80
2011,02,23,12,13,-2.80
2011,02,23,12,14,-2.80
2011,02,23,12,15,-2.80
2011,02,23,12,16,-2.80
2011,02,23,12,17,-2.80
2011,02,23,12,18,-2.80
2011,02,23,12,19,-2.80
2011,02,23,12,20,-2.80
2011,02,23,12,21,-2.80
2011,02,23,12,22,-2.80
2011,02,23,12,23,-2.80
2011,02,23,12,24,-2.80
2011,02,23,12,25,-2.80
2011,02,23,12,26,-2.80
2011,02,23,12,27,-2.70
2011,02,23,12,28,-2.80
2011,02,23,12,29,-2.80
2011,02,23,12,30,-2.80
2011,02,23,12,31,-2.80
2011,02,23,12,32,-2.80
2011,02,23,12,33,-2.80
2011,02,23,12,34,-2.80
2011,02,23,12,35,-2.80
2011,02,23,12,36,-2.80
2011,02,23,12,37,-2.80
2011,02,23,12,38,-2.70
2011,02,23,12,39,-2.70
2011,02,23,12,40,-2.70
2011,02,23,12,41,-2.70
2011,02,23,12,42,-2.70
2011,02,23,12,43,-2.70
2011,02,23,12,44,-2.70
2011,02,23,12,45,-2.70
2011,02,23,12,46,-2.70
2011,02,23,12,47,-2.70
2011,02,23,12,48,-2.70
2011,02,23,12,49,-2.70
2011,02,23,12,50,-2.70
2011,02,23,12,51,-2.70
2011,02,23,12,52,-2.70
2011,02,23,12,53,-2.70
2011,02,23,12,54,-2.70
2011,02,23,12,55,-2.70
2011,02,23,12,56,-2.70
2011,02,23,12,57,-2.70
2011,02,23,12,58,-2.70
2011,02,23,12,59,-2.60
2011,02,23,13,00,-2.60
2011,02,23,13,01,-2.60
2011,02,23,13,02,-2.60
2011,02,23,13,03,-2.60
2011,02,23,13,04,-2.70
2011,02,23,13,05,-2.70
2011,02,23,13,06,-2.70
2011,02,23,13,07,-2.70
2011,02,23,13,08,-2.70
2011,02,23,13,09,-2.70
2011,02,23,13,10,-2.70
2011,02,23,13,11,-2.60
2011,02,23,13,12,-2.60
2011,02,23,13,13,-2.60
2011,02,23,13,14,-2.60
2011,02,23,13,15,-2.70
2011,02,23,13,16,-2.70
2011,02,23,13,17,-2.70
2011,02,23,13,18,-2.70
2011,02,23,13,19,-2.70
2011,02,23,13,20,-2.70
2011,02,23,13,21,-2.70
2011,02,23,13,22,-2.70
2011,02,23,13,23,-2.70
2011,02,23,13,24,-2.70
2011,02,23,13,25,-2.70
2011,02,23,13,26,-2.70
2011,02,23,13,27,-2.70
2011,02,23,13,28,-2.70
2011,02,23,13,29,-2.80
2011,02,23,13,30,-2.80
2011,02,23,13,31,-2.80
2011,02,23,13,32,-2.80
2011,02,23,13,33,-2.70
2011,02,23,13,34,-2.70
2011,02,23,13,35,-2.70
2011,02,23,13,36,-2.70
2011,02,23,13,37,-2.70
2011,02,23,13,38,-2.70
2011,02,23,13,39,-2.70
2011,02,23,13,40,-2.70
2011,02,23,13,41,-2.70
2011,02,23,13,42,-2.70
2011,02,23,13,43,-2.70
2011,02,23,13,44,-2.70
2011,02,23,13,45,-2.70
2011,02,23,13,46,-2.70
2011,02,23,13,47,-2.70
2011,02,23,13,48,-2.70
2011,02,23,13,49,-2.70
2011,02,23,13,50,-2.70
2011,02,23,13,51,-2.70
2011,02,23,13,52,-2.70
2011,02,23,13,53,-2.70
2011,02,23,13,54,-2.70
2011,02,23,13,55,-2.70
2011,02,23,13,56,-2.70
2011,02,23,13,57,-2.80
2011,02,23,13,58,-2.80
2011,02,23,13,59,-2.80
2011,02,23,14,00,-2.80
2011,02,23,14,01,-2.80
2011,02,23,14,02,-2.80
2011,02,23,14,03,-2.80
2011,02,23,14,04,-2.80
2011,02,23,14,05,-2.90
2011,02,23,14,06,-2.90
2011,02,23,14,07,-2.90
2011,02,23,14,08,-2.90
2011,02,23,14,09,-2.90
2011,02,23,14,10,-2.90
2011,02,23,14,11,-3.00
2011,02,23,14,12,-3.00
2011,02,23,14,13,-3.00
2011,02,23,14,14,-3.00
2011,02,23,14,15,-3.00
2011,02,23,14,16,-3.00
2011,02,23,14,17,-3.00
2011,02,23,14,18,-3.00
2011,02,23,14,19,-3.00
2011,02,23,14,20,-3.00
2011,02,23,14,21,-3.00
2011,02,23,14,22,-3.00
2011,02,23,14,23,-3.00
2011,02,23,14,24,-3.00
2011,02,23,14,25,-3.00
2011,02,23,14,26,-3.00
2011,02,23,14,27,-3.00
2011,02,23,14,28,-3.00
2011,02,23,14,29,-3.00
2011,02,23,14,30,-3.00
2011,02,23,14,31,-3.00
2011,02,23,14,32,-3.00
2011,02,23,14,33,-3.00
2011,02,23,14,34,-3.00
2011,02,23,14,35,-3.00
2011,02,23,14,36,-3.00
2011,02,23,14,37,-3.00
2011,02,23,14,38,-3.00
2011,02,23,14,39,-3.00
2011,02,23,14,40,-3.00
2011,02,23,14,41,-3.00
2011,02,23,14,42,-3.00
2011,02,23,14,43,-3.00
2011,02,23,14,44,-3.00
2011,02,23,14,45,-3.00
2011,02,23,14,46,-2.90
2011,02,23,14,47,-2.90
2011,02,23,14,48,-2.90
2011,02,23,14,49,-2.90
2011,02,23,14,50,-2.90
2011,02,23,14,51,-2.80
2011,02,23,14,52,-2.80
2011,02,23,14,53,-2.80
2011,02,23,14,54,-2.80
2011,02,23,14,55,-2.80
2011,02,23,14,56,-2.80
2011,02,23,14,57,-2.80
2011,02,23,14,58,-2.80
2011,02,23,14,59,-2.80
2011,02,23,15,00,-2.90
2011,02,23,15,01,-2.90
2011,02,23,15,02,-2.90
2011,02,23,15,03,-2.90
2011,02,23,15,04,-2.90
2011,02,23,15,05,-2.90
2011,02,23,15,06,-2.90
2011,02,23,15,07,-2.80
2011,02,23,15,08,-2.80
2011,02,23,15,09,-2.80
2011,02,23,15,10,-2.80
2011,02,23,15,11,-2.80
2011,02,23,15,12,-2.80
2011,02,23,15,13,-2.80
2011,02,23,15,14,-2.80
2011,02,23,15,15,-2.80
2011,02,23,15,16,-2.80
2011,02,23,15,17,-2.80
2011,02,23,15,18,-2.80
2011,02,23,15,19,-2.80
2011,02,23,15,20,-2.80
2011,02,23,15,21,-2.80
2011,02,23,15,22,-2.80
2011,02,23,15,23,-2.80
2011,02,23,15,24,-2.80
2011,02,23,15,25,-2.80
2011,02,23,15,26,-2.80
2011,02,23,15,27,-2.80
2011,02,23,15,28,-2.80
2011,02,23,15,29,-2.80
2011,02,23,15,30,-2.70
2011,02,23,15,31,-2.70
2011,02,23,15,32,-2.70
2011,02,23,15,33,-2.70
2011,02,23,15,34,-2.70
2011,02,23,15,35,-2.70
2011,02,23,15,36,-2.70
2011,02,23,15,37,-2.70
2011,02,23,15,38,-2.70
2011,02,23,15,39,-2.70
2011,02,23,15,40,-2.70
2011,02,23,15,41,-2.70
2011,02,23,15,42,-2.70
2011,02,23,15,43,-2.70
2011,02,23,15,44,-2.70
2011,02,23,15,45,-2.70
2011,02,23,15,46,-2.70
2011,02,23,15,47,-2.70
2011,02,23,15,48,-2.70
2011,02,23,15,49,-2.70
2011,02,23,15,50,-2.70
2011,02,23,15,51,-2.70
2011,02,23,15,52,-2.70
2011,02,23,15,53,-2.70
2011,02,23,15,54,-2.70
2011,02,23,15,55,-2.70
2011,02,23,15,56,-2.70
2011,02,23,15,57,-2.70
2011,02,23,15,58,-2.70
2011,02,23,15,59,-2.60
2011,02,23,16,00,-2.60
2011,02,23,16,01,-2.60
2011,02,23,16,02,-2.60
2011,02,23,16,03,-2.60
2011,02,23,16,04,-2.60
2011,02,23,16,05,-2.60
2011,02,23,16,06,-2.50
2011,02,23,16,07,-2.50
2011,02,23,16,08,-2.50
2011,02,23,16,09,-2.50
2011,02,23,16,10,-2.50
2011,02,23,16,11,-2.50
2011,02,23,16,12,-2.50
2011,02,23,16,13,-2.50
2011,02,23,16,14,-2.50
2011,02,23,16,15,-2.50
2011,02,23,16,16,-2.50
2011,02,23,16,17,-2.50
2011,02,23,16,18,-2.50
2011,02,23,16,19,-2.40
2011,02,23,16,20,-2.40
2011,02,23,16,21,-2.40
2011,02,23,16,22,-2.40
2011,02,23,16,23,-2.40
2011,02,23,16,24,-2.40
2011,02,23,16,25,-2.40
2011,02,23,16,26,-2.40
2011,02,23,16,27,-2.40
2011,02,23,16,28,-2.30
2011,02,23,16,29,-2.30
2011,02,23,16,30,-2.30
2011,02,23,16,31,-2.40
2011,02,23,16,32,-2.40
2011,02,23,16,33,-2.40
2011,02,23,16,34,-2.40
2011,02,23,16,35,-2.40
2011,02,23,16,36,-2.40
2011,02,23,16,37,-2.40
2011,02,23,16,38,-2.40
2011,02,23,16,39,-2.40
2011,02,23,16,40,-2.40
2011,02,23,16,41,-2.40
2011,02,23,16,42,-2.40
2011,02,23,16,43,-2.40
2011,02,23,16,44,-2.40
2011,02,23,16,45,-2.40
2011,02,23,16,46,-2.40
2011,02,23,16,47,-2.40
2011,02,23,16,48,-2.40
2011,02,23,16,49,-2.40
2011,02,23,16,50,-2.40
2011,02,23,16,51,-2.40
2011,02,23,16,52,-2.40
2011,02,23,16,53,-2.40
2011,02,23,16,54,-2.40
2011,02,23,16,55,-2.40
2011,02,23,16,56,-2.40
2011,02,23,16,57,-2.40
2011,02,23,16,58,-2.40
2011,02,23,16,59,-2.40
2011,02,23,17,00,-2.40
2011,02,23,17,01,-2.40
2011,02,23,17,02,-2.40
2011,02,23,17,03,-2.40
2011,02,23,17,04,-2.40
2011,02,23,17,05,-2.40
2011,02,23,17,06,-2.40
2011,02,23,17,07,-2.40
2011,02,23,17,08,-2.30
2011,02,23,17,09,-2.30
2011,02,23,17,10,-2.30
2011,02,23,17,11,-2.30
2011,02,23,17,12,-2.30
2011,02,23,17,13,-2.30
2011,02,23,17,14,-2.30
2011,02,23,17,15,-2.30
2011,02,23,17,16,-2.30
2011,02,23,17,17,-2.30
2011,02,23,17,18,-2.40
2011,02,23,17,19,-2.40